| time (UTC) | temp C | wind direction | speed KPH | gust KPH | rain 1hr cm | rain 24hr cm | rain mn cm | humidity % | barometer mb |
| 20260906155314 | 36 | 322 | 6.4 | 8.0 | 0.00 | 0.00 | 0.00 | 42 | 1008.0 |
| 20260906154814 | 36 | 184 | 1.6 | 1.6 | 0.00 | 0.00 | 0.00 | 43 | 1008.0 |
| 20260906154313 | 35 | 193 | 4.8 | 4.8 | 0.00 | 0.00 | 0.00 | 46 | 1008.0 |
| 20260906153814 | 37 | 203 | 1.6 | 4.8 | 0.00 | 0.00 | 0.00 | 44 | 1008.0 |
| 20260906153313 | 36 | 168 | 3.2 | 3.2 | 0.00 | 0.00 | 0.00 | 44 | 1008.0 |
| 20260906152814 | 35 | 278 | 4.8 | 4.8 | 0.00 | 0.00 | 0.00 | 46 | 1008.0 |
| 20260906152314 | 35 | 146 | 6.4 | 6.4 | 0.00 | 0.00 | 0.00 | 46 | 1008.0 |
| 20260906151814 | 34 | 196 | 6.4 | 6.4 | 0.00 | 0.00 | 0.00 | 47 | 1008.0 |
| 20260906151314 | 35 | 184 | 0.0 | 3.2 | 0.00 | 0.00 | 0.00 | 46 | 1008.0 |
| 20260906150815 | 35 | 205 | 4.8 | 6.4 | 0.00 | 0.00 | 0.00 | 49 | 1008.0 |
| 20260906150314 | 35 | 300 | 3.2 | 3.2 | 0.00 | 0.00 | 0.00 | 49 | 1008.0 |
| 20260906145814 | 35 | 141 | 1.6 | 1.6 | 0.00 | 0.00 | 0.00 | 48 | 1008.0 |
| 20260906144825 | 33 | 141 | 1.6 | 1.6 | 0.00 | 0.00 | 0.00 | 50 | 1008.0 |
| 20260906144314 | 33 | 45 | 3.2 | 3.2 | 0.00 | 0.00 | 0.00 | 51 | 1008.0 |
| 20260906143814 | 33 | 164 | 1.6 | 1.6 | 0.00 | 0.00 | 0.00 | 55 | 1008.0 |
| 20260906143314 | 32 | 169 | 3.2 | 3.2 | 0.00 | 0.00 | 0.00 | 56 | 1008.0 |
| 20260906142815 | 32 | 148 | 1.6 | 1.6 | 0.00 | 0.00 | 0.00 | 56 | 1008.0 |
| 20260906142314 | 31 | 281 | 1.6 | 3.2 | 0.00 | 0.00 | 0.00 | 58 | 1008.0 |
| 20260906141814 | 31 | 184 | 1.6 | 1.6 | 0.00 | 0.00 | 0.00 | 61 | 1008.0 |
| 20260906141315 | 30 | 193 | 1.6 | 3.2 | 0.00 | 0.00 | 0.00 | 63 | 1008.0 |
| 20260906140814 | 29 | 159 | 1.6 | 1.6 | 0.00 | 0.00 | 0.00 | 66 | 1008.0 |
| 20260906140314 | 29 | 254 | 3.2 | 3.2 | 0.00 | 0.00 | 0.00 | 67 | 1008.0 |
| 20260906135814 | 28 | 176 | 3.2 | 3.2 | 0.00 | 0.00 | 0.00 | 68 | 1008.0 |
| 20260906135314 | 28 | 181 | 3.2 | 3.2 | 0.00 | 0.00 | 0.00 | 69 | 1008.0 |
| 20260906134815 | 28 | 127 | 1.6 | 1.6 | 0.00 | 0.00 | 0.00 | 69 | 1008.0 |
| 20260906134314 | 28 | 183 | 3.2 | 4.8 | 0.00 | 0.00 | 0.00 | 69 | 1008.0 |
| 20260906133814 | 27 | 141 | 0.0 | 1.6 | 0.00 | 0.00 | 0.00 | 71 | 1008.0 |
| 20260906133314 | 27 | 184 | 0.0 | 1.6 | 0.00 | 0.00 | 0.00 | 72 | 1008.0 |
| 20260906132814 | 27 | 171 | 0.0 | 1.6 | 0.00 | 0.00 | 0.00 | 72 | 1008.0 |
| 20260906132313 | 27 | 180 | 1.6 | 1.6 | 0.00 | 0.00 | 0.00 | 72 | 1008.0 |
| 20260906131814 | 27 | 185 | 3.2 | 3.2 | 0.00 | 0.00 | 0.00 | 72 | 1008.0 |
| 20260906131314 | 27 | 190 | 1.6 | 1.6 | 0.00 | 0.00 | 0.00 | 73 | 1007.0 |
| 20260906130814 | 26 | 213 | 3.2 | 4.8 | 0.00 | 0.00 | 0.00 | 73 | 1007.0 |
| 20260906130314 | 26 | 183 | 3.2 | 3.2 | 0.00 | 0.00 | 0.00 | 74 | 1007.0 |
| 20260906125815 | 26 | 176 | 3.2 | 3.2 | 0.00 | 0.00 | 0.00 | 74 | 1007.0 |
| 20260906125314 | 26 | 180 | 1.6 | 1.6 | 0.00 | 0.00 | 0.00 | 75 | 1007.0 |
| 20260906124814 | 26 | 185 | 1.6 | 1.6 | 0.00 | 0.00 | 0.00 | 74 | 1007.0 |
| 20260906124314 | 26 | 181 | 1.6 | 1.6 | 0.00 | 0.00 | 0.00 | 75 | 1007.0 |
| 20260906123814 | 25 | 171 | 1.6 | 1.6 | 0.00 | 0.00 | 0.00 | 77 | 1007.0 |
| 20260906123314 | 25 | 180 | 0.0 | 0.0 | 0.00 | 0.00 | 0.00 | 78 | 1007.0 |
| 20260906122814 | 25 | 180 | 0.0 | 0.0 | 0.00 | 0.00 | 0.00 | 79 | 1007.0 |
| 20260906122314 | 25 | 180 | 0.0 | 0.0 | 0.00 | 0.00 | 0.00 | 79 | 1007.0 |
| 20260906121814 | 25 | 180 | 0.0 | 0.0 | 0.00 | 0.00 | 0.00 | 80 | 1007.0 |
| 20260906121314 | 24 | 188 | 1.6 | 3.2 | 0.00 | 0.00 | 0.00 | 81 | 1007.0 |
| 20260906120814 | 24 | 174 | 0.0 | 0.0 | 0.00 | 0.00 | 0.00 | 82 | 1007.0 |
| 20260906120314 | 24 | 166 | 0.0 | 0.0 | 0.00 | 0.00 | 0.00 | 84 | 1007.0 |
| 20260906115814 | 24 | 156 | 0.0 | 0.0 | 0.00 | 0.00 | 0.00 | 84 | 1006.0 |
| 20260906115314 | 24 | 151 | 0.0 | 0.0 | 0.00 | 0.00 | 0.00 | 83 | 1006.0 |
| 20260906114814 | 24 | 146 | 1.6 | 1.6 | 0.00 | 0.00 | 0.00 | 84 | 1006.0 |
| 20260906114315 | 23 | 174 | 0.0 | 0.0 | 0.00 | 0.00 | 0.00 | 86 | 1006.0 |
| 20260906113814 | 23 | 174 | 0.0 | 0.0 | 0.00 | 0.00 | 0.00 | 86 | 1006.0 |
| 20260906113314 | 23 | 174 | 1.6 | 1.6 | 0.00 | 0.00 | 0.00 | 86 | 1006.0 |
| 20260906112814 | 23 | 174 | 1.6 | 1.6 | 0.00 | 0.00 | 0.00 | 86 | 1006.0 |
| 20260906112314 | 23 | 174 | 0.0 | 0.0 | 0.00 | 0.00 | 0.00 | 86 | 1006.0 |
| 20260906111814 | 23 | 174 | 0.0 | 0.0 | 0.00 | 0.00 | 0.00 | 89 | 1006.0 |
| 20260906111314 | 23 | 174 | 0.0 | 0.0 | 0.00 | 0.00 | 0.00 | 88 | 1006.0 |
| 20260906110814 | 23 | 174 | 0.0 | 0.0 | 0.00 | 0.00 | 0.00 | 89 | 1006.0 |
| 20260906110314 | 23 | 174 | 0.0 | 0.0 | 0.00 | 0.00 | 0.00 | 88 | 1006.0 |
| 20260906105815 | 23 | 174 | 0.0 | 0.0 | 0.00 | 0.00 | 0.00 | 88 | 1006.0 |
| 20260906105314 | 23 | 174 | 0.0 | 0.0 | 0.00 | 0.00 | 0.00 | 88 | 1006.0 |
| 20260906104814 | 23 | 174 | 0.0 | 0.0 | 0.00 | 0.00 | 0.00 | 87 | 1006.0 |
| 20260906104314 | 24 | 174 | 0.0 | 0.0 | 0.00 | 0.00 | 0.00 | 86 | 1006.0 |
| 20260906103814 | 24 | 174 | 0.0 | 0.0 | 0.00 | 0.00 | 0.00 | 84 | 1006.0 |
| 20260906103314 | 25 | 176 | 1.6 | 1.6 | 0.00 | 0.00 | 0.00 | 82 | 1006.0 |
| 20260906102815 | 25 | 170 | 0.0 | 0.0 | 0.00 | 0.00 | 0.00 | 79 | 1006.0 |
| 20260906102314 | 26 | 171 | 1.6 | 1.6 | 0.00 | 0.00 | 0.00 | 77 | 1006.0 |
| 20260906101815 | 26 | 170 | 0.0 | 0.0 | 0.00 | 0.00 | 0.00 | 77 | 1006.0 |
| 20260906101314 | 26 | 170 | 0.0 | 0.0 | 0.00 | 0.00 | 0.00 | 76 | 1006.0 |
| 20260906100814 | 26 | 159 | 0.0 | 0.0 | 0.00 | 0.00 | 0.00 | 76 | 1006.0 |
| 20260906100314 | 26 | 165 | 0.0 | 0.0 | 0.00 | 0.00 | 0.00 | 77 | 1006.0 |
| 20260906095814 | 26 | 174 | 0.0 | 0.0 | 0.00 | 0.00 | 0.00 | 75 | 1006.0 |
| 20260906095314 | 26 | 175 | 0.0 | 0.0 | 0.00 | 0.00 | 0.00 | 75 | 1006.0 |
| 20260906094814 | 26 | 175 | 0.0 | 1.6 | 0.00 | 0.00 | 0.00 | 75 | 1006.0 |
| 20260906094314 | 26 | 159 | 0.0 | 0.0 | 0.00 | 0.00 | 0.00 | 75 | 1006.0 |
| 20260906093814 | 26 | 161 | 0.0 | 0.0 | 0.00 | 0.00 | 0.00 | 75 | 1006.0 |
| 20260906093314 | 26 | 159 | 1.6 | 1.6 | 0.00 | 0.00 | 0.00 | 75 | 1006.0 |
| 20260906092813 | 26 | 185 | 1.6 | 1.6 | 0.00 | 0.00 | 0.00 | 75 | 1006.0 |
| 20260906092314 | 25 | 173 | 1.6 | 1.6 | 0.00 | 0.00 | 0.00 | 77 | 1006.0 |
| 20260906091814 | 25 | 158 | 0.0 | 0.0 | 0.00 | 0.00 | 0.00 | 77 | 1006.0 |
| 20260906091314 | 26 | 138 | 1.6 | 1.6 | 0.00 | 0.00 | 0.00 | 77 | 1006.0 |
| 20260906090814 | 26 | 134 | 1.6 | 1.6 | 0.00 | 0.00 | 0.00 | 76 | 1006.0 |
| 20260906090314 | 26 | 160 | 0.0 | 0.0 | 0.00 | 0.00 | 0.00 | 78 | 1006.0 |
| 20260906085814 | 26 | 162 | 0.0 | 0.0 | 0.00 | 0.00 | 0.00 | 76 | 1006.0 |
| 20260906085314 | 26 | 162 | 0.0 | 0.0 | 0.00 | 0.00 | 0.00 | 74 | 1006.0 |
| 20260906084814 | 26 | 148 | 1.6 | 1.6 | 0.00 | 0.00 | 0.00 | 73 | 1006.0 |
| 20260906084313 | 26 | 139 | 1.6 | 1.6 | 0.00 | 0.00 | 0.00 | 74 | 1006.0 |
| 20260906083814 | 27 | 146 | 0.0 | 0.0 | 0.00 | 0.00 | 0.00 | 72 | 1006.0 |
| 20260906083314 | 27 | 147 | 0.0 | 1.6 | 0.00 | 0.00 | 0.00 | 70 | 1006.0 |
| 20260906082814 | 27 | 142 | 1.6 | 1.6 | 0.00 | 0.00 | 0.00 | 71 | 1006.0 |
| 20260906082314 | 27 | 147 | 0.0 | 0.0 | 0.00 | 0.00 | 0.00 | 71 | 1006.0 |
| 20260906081432 | 27 | 170 | 1.6 | 1.6 | 0.00 | 0.00 | 0.00 | 71 | 1006.0 |
| 20260906081353 | 27 | 170 | 1.6 | 1.6 | 0.00 | 0.00 | 0.00 | 71 | 1006.0 |
| 20260906080816 | 26 | 167 | 0.0 | 0.0 | 0.00 | 0.00 | 0.00 | 72 | 1006.0 |
| 20260906080315 | 26 | 167 | 0.0 | 0.0 | 0.00 | 0.00 | 0.00 | 72 | 1006.0 |
| 20260906075817 | 27 | 167 | 0.0 | 0.0 | 0.00 | 0.00 | 0.00 | 71 | 1006.0 |
| 20260906075314 | 27 | 155 | 0.0 | 0.0 | 0.00 | 0.00 | 0.00 | 70 | 1006.0 |
| 20260906074814 | 27 | 147 | 0.0 | 0.0 | 0.00 | 0.00 | 0.00 | 70 | 1006.0 |
| 20260906074314 | 27 | 147 | 0.0 | 0.0 | 0.00 | 0.00 | 0.00 | 70 | 1006.0 |
| 20260906073814 | 27 | 144 | 1.6 | 1.6 | 0.00 | 0.00 | 0.00 | 70 | 1006.0 |
| 20260906073315 | 27 | 155 | 0.0 | 0.0 | 0.00 | 0.00 | 0.00 | 71 | 1006.0 |
| 20260906072814 | 27 | 155 | 0.0 | 0.0 | 0.00 | 0.00 | 0.00 | 71 | 1006.0 |
| 20260906072314 | 27 | 166 | 0.0 | 0.0 | 0.00 | 0.00 | 0.00 | 69 | 1006.0 |
| 20260906071814 | 28 | 166 | 0.0 | 0.0 | 0.00 | 0.00 | 0.00 | 67 | 1006.0 |
| 20260906071314 | 28 | 149 | 1.6 | 1.6 | 0.00 | 0.00 | 0.00 | 67 | 1006.0 |
| 20260906070814 | 28 | 149 | 1.6 | 1.6 | 0.00 | 0.00 | 0.00 | 67 | 1006.0 |
| 20260906070323 | 27 | 149 | 1.6 | 1.6 | 0.00 | 0.00 | 0.00 | 68 | 1006.0 |
| 20260906065815 | 27 | 149 | 0.0 | 0.0 | 0.00 | 0.00 | 0.00 | 68 | 1006.0 |
| 20260906065314 | 27 | 160 | 0.0 | 1.6 | 0.00 | 0.00 | 0.00 | 68 | 1006.0 |
| 20260906064814 | 27 | 153 | 0.0 | 0.0 | 0.00 | 0.00 | 0.00 | 68 | 1006.0 |
| 20260906064314 | 27 | 153 | 0.0 | 0.0 | 0.00 | 0.00 | 0.00 | 68 | 1006.0 |
| 20260906063815 | 27 | 149 | 0.0 | 0.0 | 0.00 | 0.00 | 0.00 | 68 | 1006.0 |
| 20260906063315 | 27 | 152 | 0.0 | 0.0 | 0.00 | 0.00 | 0.00 | 68 | 1006.0 |
| 20260906062816 | 27 | 150 | 0.0 | 0.0 | 0.00 | 0.00 | 0.00 | 68 | 1006.0 |
| 20260906062314 | 27 | 157 | 0.0 | 0.0 | 0.00 | 0.00 | 0.00 | 68 | 1006.0 |
| 20260906061815 | 27 | 156 | 0.0 | 0.0 | 0.00 | 0.00 | 0.00 | 67 | 1006.0 |
| 20260906061314 | 28 | 157 | 0.0 | 0.0 | 0.00 | 0.00 | 0.00 | 67 | 1006.0 |
| 20260906060814 | 28 | 157 | 0.0 | 0.0 | 0.00 | 0.00 | 0.00 | 66 | 1006.0 |
| 20260906060313 | 28 | 174 | 0.0 | 0.0 | 0.00 | 0.00 | 0.00 | 65 | 1006.0 |
| 20260906055815 | 28 | 177 | 0.0 | 0.0 | 0.00 | 0.00 | 0.00 | 63 | 1006.0 |
| 20260906055314 | 28 | 175 | 0.0 | 0.0 | 0.00 | 0.00 | 0.00 | 64 | 1006.0 |
| 20260906054814 | 28 | 176 | 1.6 | 1.6 | 0.00 | 0.00 | 0.00 | 65 | 1006.0 |
| 20260906054314 | 28 | 171 | 0.0 | 0.0 | 0.00 | 0.00 | 0.00 | 64 | 1006.0 |
| 20260906053814 | 28 | 184 | 0.0 | 1.6 | 0.00 | 0.00 | 0.00 | 65 | 1006.0 |
| 20260906053314 | 28 | 145 | 0.0 | 0.0 | 0.00 | 0.00 | 0.00 | 65 | 1006.0 |
| 20260906052815 | 28 | 164 | 0.0 | 0.0 | 0.00 | 0.00 | 0.00 | 65 | 1006.0 |
| 20260906052314 | 28 | 174 | 0.0 | 0.0 | 0.00 | 0.00 | 0.00 | 63 | 1006.0 |
| 20260906051814 | 28 | 176 | 1.6 | 1.6 | 0.00 | 0.00 | 0.00 | 63 | 1006.0 |
| 20260906051314 | 28 | 172 | 0.0 | 0.0 | 0.00 | 0.00 | 0.00 | 65 | 1006.0 |
| 20260906050814 | 28 | 172 | 0.0 | 0.0 | 0.00 | 0.00 | 0.00 | 63 | 1006.0 |
| 20260906050315 | 28 | 154 | 0.0 | 0.0 | 0.00 | 0.00 | 0.00 | 63 | 1006.0 |
| 20260906045814 | 29 | 159 | 0.0 | 0.0 | 0.00 | 0.00 | 0.00 | 62 | 1006.0 |
| 20260906045314 | 30 | 184 | 3.2 | 3.2 | 0.00 | 0.00 | 0.00 | 60 | 1006.0 |
| 20260906044814 | 30 | 182 | 1.6 | 1.6 | 0.00 | 0.00 | 0.00 | 61 | 1006.0 |
| 20260906044314 | 30 | 160 | 0.0 | 0.0 | 0.00 | 0.00 | 0.00 | 60 | 1006.0 |
| 20260906043813 | 30 | 160 | 0.0 | 1.6 | 0.00 | 0.00 | 0.00 | 60 | 1006.0 |
| 20260906043314 | 30 | 162 | 0.0 | 1.6 | 0.00 | 0.00 | 0.00 | 60 | 1006.0 |
| 20260906042814 | 30 | 175 | 0.0 | 1.6 | 0.00 | 0.00 | 0.00 | 59 | 1006.0 |
| 20260906042314 | 30 | 159 | 1.6 | 1.6 | 0.00 | 0.00 | 0.00 | 59 | 1006.0 |
| 20260906041815 | 30 | 183 | 3.2 | 4.8 | 0.00 | 0.00 | 0.00 | 58 | 1006.0 |
| 20260906041314 | 30 | 169 | 4.8 | 4.8 | 0.00 | 0.00 | 0.00 | 58 | 1006.0 |
| 20260906040814 | 30 | 193 | 4.8 | 6.4 | 0.00 | 0.00 | 0.00 | 58 | 1006.0 |
| 20260906040314 | 30 | 190 | 6.4 | 6.4 | 0.00 | 0.00 | 0.00 | 58 | 1006.0 |
| 20260906035814 | 30 | 182 | 6.4 | 8.0 | 0.00 | 0.00 | 0.00 | 58 | 1006.0 |
| 20260906035314 | 30 | 197 | 8.0 | 9.7 | 0.00 | 0.00 | 0.00 | 58 | 1006.0 |
| 20260906034816 | 30 | 210 | 4.8 | 6.4 | 0.00 | 0.00 | 0.00 | 59 | 1006.0 |
| 20260906034314 | 30 | 149 | 1.6 | 1.6 | 0.00 | 0.00 | 0.00 | 59 | 1006.0 |
| 20260906033814 | 30 | 158 | 1.6 | 3.2 | 0.00 | 0.00 | 0.00 | 60 | 1006.0 |
| 20260906033314 | 30 | 172 | 1.6 | 1.6 | 0.00 | 0.00 | 0.00 | 59 | 1006.0 |
| 20260906032814 | 31 | 157 | 0.0 | 1.6 | 0.00 | 0.00 | 0.00 | 57 | 1006.0 |
| 20260906032314 | 30 | 159 | 1.6 | 1.6 | 0.00 | 0.00 | 0.00 | 58 | 1006.0 |
| 20260906031814 | 30 | 156 | 1.6 | 1.6 | 0.00 | 0.00 | 0.00 | 58 | 1006.0 |
| 20260906031314 | 31 | 180 | 3.2 | 3.2 | 0.00 | 0.00 | 0.00 | 56 | 1006.0 |
| 20260906030814 | 30 | 190 | 4.8 | 8.0 | 0.00 | 0.00 | 0.00 | 57 | 1006.0 |
| 20260906030316 | 30 | 181 | 3.2 | 4.8 | 0.00 | 0.00 | 0.00 | 58 | 1006.0 |
| 20260906025815 | 30 | 192 | 4.8 | 4.8 | 0.00 | 0.00 | 0.00 | 57 | 1006.0 |
| 20260906025314 | 29 | 163 | 1.6 | 1.6 | 0.00 | 0.00 | 0.00 | 62 | 1006.0 |
| 20260906024817 | 29 | 175 | 0.0 | 0.0 | 0.00 | 0.00 | 0.00 | 60 | 1006.0 |
| 20260906024314 | 30 | 189 | 1.6 | 1.6 | 0.00 | 0.00 | 0.00 | 59 | 1006.0 |
| 20260906023821 | 30 | 176 | 0.0 | 0.0 | 0.00 | 0.00 | 0.00 | 56 | 1006.0 |
| 20260906023314 | 30 | 200 | 0.0 | 1.6 | 0.00 | 0.00 | 0.00 | 57 | 1006.0 |
| 20260906022814 | 30 | 147 | 0.0 | 0.0 | 0.00 | 0.00 | 0.00 | 57 | 1006.0 |
| 20260906022314 | 30 | 151 | 3.2 | 3.2 | 0.00 | 0.00 | 0.00 | 56 | 1005.0 |
| 20260906021814 | 30 | 154 | 1.6 | 3.2 | 0.00 | 0.00 | 0.00 | 58 | 1005.0 |
| 20260906021315 | 30 | 161 | 1.6 | 1.6 | 0.00 | 0.00 | 0.00 | 57 | 1005.0 |
| 20260906020814 | 31 | 165 | 0.0 | 1.6 | 0.00 | 0.00 | 0.00 | 56 | 1005.0 |
| 20260906020314 | 31 | 185 | 0.0 | 0.0 | 0.00 | 0.00 | 0.00 | 55 | 1005.0 |
| 20260906015814 | 31 | 104 | 3.2 | 3.2 | 0.00 | 0.00 | 0.00 | 53 | 1005.0 |
| 20260906015314 | 31 | 65 | 3.2 | 3.2 | 0.00 | 0.00 | 0.00 | 51 | 1005.0 |
| 20260906014814 | 32 | 158 | 1.6 | 1.6 | 0.00 | 0.00 | 0.00 | 50 | 1005.0 |
| 20260906014314 | 32 | 161 | 1.6 | 4.8 | 0.00 | 0.00 | 0.00 | 50 | 1005.0 |
| 20260906013814 | 32 | 180 | 4.8 | 6.4 | 0.00 | 0.00 | 0.00 | 49 | 1005.0 |
| 20260906013314 | 32 | 201 | 8.0 | 8.0 | 0.00 | 0.00 | 0.00 | 49 | 1005.0 |
| 20260906012814 | 32 | 200 | 4.8 | 6.4 | 0.00 | 0.00 | 0.00 | 49 | 1005.0 |
| 20260906012314 | 32 | 202 | 3.2 | 3.2 | 0.00 | 0.00 | 0.00 | 48 | 1004.0 |
| 20260906011814 | 32 | 181 | 1.6 | 1.6 | 0.00 | 0.00 | 0.00 | 47 | 1004.0 |
| 20260906011314 | 32 | 160 | 1.6 | 3.2 | 0.00 | 0.00 | 0.00 | 48 | 1004.0 |
| 20260906010814 | 32 | 156 | 3.2 | 3.2 | 0.00 | 0.00 | 0.00 | 49 | 1004.0 |
| 20260906010315 | 31 | 152 | 3.2 | 3.2 | 0.00 | 0.00 | 0.00 | 50 | 1004.0 |
| 20260906005814 | 32 | 159 | 0.0 | 0.0 | 0.00 | 0.00 | 0.00 | 45 | 1004.0 |
| 20260906005314 | 32 | 159 | 0.0 | 0.0 | 0.00 | 0.00 | 0.00 | 45 | 1004.0 |
| 20260906004814 | 32 | 160 | 0.0 | 0.0 | 0.00 | 0.00 | 0.00 | 45 | 1004.0 |
| 20260906004314 | 32 | 152 | 0.0 | 0.0 | 0.00 | 0.00 | 0.00 | 45 | 1004.0 |
| 20260906003814 | 32 | 151 | 0.0 | 0.0 | 0.00 | 0.00 | 0.00 | 43 | 1004.0 |
| 20260906003315 | 33 | 151 | 0.0 | 0.0 | 0.00 | 0.00 | 0.00 | 42 | 1004.0 |
| 20260906002814 | 33 | 151 | 0.0 | 0.0 | 0.00 | 0.00 | 0.00 | 42 | 1004.0 |
| 20260906002314 | 33 | 144 | 1.6 | 1.6 | 0.00 | 0.00 | 0.00 | 41 | 1004.0 |
| 20260906001814 | 34 | 143 | 1.6 | 1.6 | 0.00 | 0.00 | 0.00 | 40 | 1004.0 |
| 20260906001314 | 34 | 131 | 1.6 | 1.6 | 0.00 | 0.00 | 0.00 | 40 | 1004.0 |
| 20260906000814 | 35 | 153 | 0.0 | 0.0 | 0.00 | 0.00 | 0.00 | 39 | 1004.0 |
| 20260906000314 | 35 | 153 | 0.0 | 0.0 | 0.00 | 0.00 | 0.00 | 38 | 1004.0 |
| 20260905235814 | 36 | 153 | 0.0 | 0.0 | 0.00 | 0.00 | 0.00 | 37 | 1004.0 |
| 20260905235314 | 36 | 146 | 0.0 | 0.0 | 0.00 | 0.00 | 0.00 | 37 | 1004.0 |
| 20260905234814 | 36 | 151 | 0.0 | 0.0 | 0.00 | 0.00 | 0.00 | 36 | 1004.0 |
| 20260905234314 | 37 | 152 | 1.6 | 1.6 | 0.00 | 0.00 | 0.00 | 35 | 1004.0 |
| 20260905233816 | 38 | 155 | 0.0 | 0.0 | 0.00 | 0.00 | 0.00 | 34 | 1004.0 |
| 20260905233314 | 38 | 135 | 0.0 | 1.6 | 0.00 | 0.00 | 0.00 | 32 | 1004.0 |
| 20260905232814 | 39 | 180 | 0.0 | 1.6 | 0.00 | 0.00 | 0.00 | 30 | 1004.0 |
| 20260905232314 | 38 | 147 | 1.6 | 1.6 | 0.00 | 0.00 | 0.00 | 32 | 1004.0 |
| 20260905231815 | 39 | 90 | 1.6 | 3.2 | 0.00 | 0.00 | 0.00 | 30 | 1004.0 |
| 20260905231314 | 40 | 156 | 0.0 | 0.0 | 0.00 | 0.00 | 0.00 | 31 | 1004.0 |
| 20260905230814 | 40 | 124 | 1.6 | 1.6 | 0.00 | 0.00 | 0.00 | 30 | 1004.0 |
| 20260905230314 | 40 | 153 | 1.6 | 1.6 | 0.00 | 0.00 | 0.00 | 30 | 1004.0 |
| 20260905225814 | 40 | 152 | 0.0 | 1.6 | 0.00 | 0.00 | 0.00 | 31 | 1004.0 |
| 20260905225314 | 40 | 167 | 0.0 | 1.6 | 0.00 | 0.00 | 0.00 | 30 | 1004.0 |
| 20260905224814 | 40 | 134 | 1.6 | 3.2 | 0.00 | 0.00 | 0.00 | 31 | 1004.0 |
| 20260905224314 | 41 | 149 | 0.0 | 0.0 | 0.00 | 0.00 | 0.00 | 30 | 1004.0 |
| 20260905223814 | 41 | 165 | 1.6 | 1.6 | 0.00 | 0.00 | 0.00 | 29 | 1004.0 |
| 20260905223314 | 40 | 214 | 0.0 | 1.6 | 0.00 | 0.00 | 0.00 | 29 | 1004.0 |
| 20260905222814 | 41 | 182 | 0.0 | 1.6 | 0.00 | 0.00 | 0.00 | 29 | 1004.0 |
| 20260905222314 | 41 | 191 | 3.2 | 3.2 | 0.00 | 0.00 | 0.00 | 29 | 1004.0 |
| 20260905221814 | 41 | 184 | 1.6 | 1.6 | 0.00 | 0.00 | 0.00 | 30 | 1004.0 |
| 20260905221314 | 40 | 151 | 3.2 | 3.2 | 0.00 | 0.00 | 0.00 | 31 | 1004.0 |
| 20260905220814 | 41 | 145 | 3.2 | 3.2 | 0.00 | 0.00 | 0.00 | 30 | 1004.0 |
| 20260905220314 | 40 | 190 | 1.6 | 4.8 | 0.00 | 0.00 | 0.00 | 29 | 1004.0 |
| 20260905215814 | 40 | 184 | 3.2 | 4.8 | 0.00 | 0.00 | 0.00 | 30 | 1004.0 |
| 20260905215314 | 40 | 313 | 1.6 | 4.8 | 0.00 | 0.00 | 0.00 | 31 | 1004.0 |
| 20260905214814 | 40 | 116 | 1.6 | 3.2 | 0.00 | 0.00 | 0.00 | 31 | 1004.0 |
| 20260905214314 | 40 | 161 | 1.6 | 3.2 | 0.00 | 0.00 | 0.00 | 30 | 1004.0 |
| 20260905213814 | 40 | 184 | 3.2 | 4.8 | 0.00 | 0.00 | 0.00 | 31 | 1004.0 |
| 20260905213314 | 41 | 196 | 1.6 | 1.6 | 0.00 | 0.00 | 0.00 | 29 | 1005.0 |
| 20260905212814 | 41 | 197 | 3.2 | 4.8 | 0.00 | 0.00 | 0.00 | 30 | 1005.0 |
| 20260905212314 | 41 | 141 | 3.2 | 3.2 | 0.00 | 0.00 | 0.00 | 32 | 1005.0 |
| 20260905211814 | 41 | 164 | 3.2 | 3.2 | 0.00 | 0.00 | 0.00 | 31 | 1005.0 |
| 20260905211314 | 40 | 156 | 6.4 | 6.4 | 0.00 | 0.00 | 0.00 | 32 | 1005.0 |
| 20260905210814 | 41 | 127 | 3.2 | 4.8 | 0.00 | 0.00 | 0.00 | 32 | 1005.0 |
| 20260905210316 | 41 | 190 | 1.6 | 1.6 | 0.00 | 0.00 | 0.00 | 32 | 1005.0 |
| 20260905205815 | 42 | 145 | 3.2 | 4.8 | 0.00 | 0.00 | 0.00 | 30 | 1005.0 |
| 20260905205314 | 41 | 142 | 4.8 | 6.4 | 0.00 | 0.00 | 0.00 | 33 | 1005.0 |
| 20260905204814 | 41 | 53 | 6.4 | 8.0 | 0.00 | 0.00 | 0.00 | 32 | 1006.0 |
| 20260905204314 | 41 | 195 | 3.2 | 3.2 | 0.00 | 0.00 | 0.00 | 32 | 1006.0 |
| 20260905203814 | 40 | 149 | 1.6 | 1.6 | 0.00 | 0.00 | 0.00 | 35 | 1006.0 |
| 20260905203314 | 40 | 185 | 3.2 | 3.2 | 0.00 | 0.00 | 0.00 | 33 | 1006.0 |
| 20260905202815 | 39 | 156 | 1.6 | 1.6 | 0.00 | 0.00 | 0.00 | 38 | 1006.0 |
| 20260905202314 | 37 | 190 | 6.4 | 14.5 | 0.00 | 0.00 | 0.00 | 40 | 1006.0 |
| 20260905201814 | 40 | 104 | 1.6 | 1.6 | 0.00 | 0.00 | 0.00 | 38 | 1006.0 |
| 20260905201314 | 39 | 82 | 4.8 | 6.4 | 0.00 | 0.00 | 0.00 | 37 | 1006.0 |
| 20260905200814 | 40 | 200 | 6.4 | 9.7 | 0.00 | 0.00 | 0.00 | 36 | 1006.0 |
| 20260905200314 | 39 | 11 | 8.0 | 9.7 | 0.00 | 0.00 | 0.00 | 36 | 1006.0 |
| 20260905195815 | 39 | 90 | 4.8 | 9.7 | 0.00 | 0.00 | 0.00 | 38 | 1006.0 |
| 20260905195314 | 40 | 180 | 3.2 | 4.8 | 0.00 | 0.00 | 0.00 | 35 | 1006.0 |
| 20260905194814 | 41 | 157 | 3.2 | 4.8 | 0.00 | 0.00 | 0.00 | 32 | 1006.0 |
| 20260905194318 | 39 | 198 | 11.3 | 12.9 | 0.00 | 0.00 | 0.00 | 34 | 1006.0 |
| 20260905193814 | 40 | 258 | 8.0 | 11.3 | 0.00 | 0.00 | 0.00 | 33 | 1006.0 |
| 20260905193314 | 39 | 203 | 6.4 | 11.3 | 0.00 | 0.00 | 0.00 | 35 | 1006.0 |
| 20260905192814 | 41 | 270 | 8.0 | 11.3 | 0.00 | 0.00 | 0.00 | 32 | 1006.0 |
| 20260905192314 | 41 | 145 | 1.6 | 3.2 | 0.00 | 0.00 | 0.00 | 33 | 1006.0 |
| 20260905191814 | 41 | 106 | 4.8 | 6.4 | 0.00 | 0.00 | 0.00 | 33 | 1006.0 |
| 20260905191314 | 40 | 160 | 1.6 | 3.2 | 0.00 | 0.00 | 0.00 | 34 | 1006.0 |
| 20260905190814 | 39 | 199 | 8.0 | 9.7 | 0.00 | 0.00 | 0.00 | 35 | 1006.0 |
| 20260905190314 | 39 | 193 | 4.8 | 6.4 | 0.00 | 0.00 | 0.00 | 36 | 1006.0 |
| 20260905185814 | 40 | 207 | 6.4 | 8.0 | 0.00 | 0.00 | 0.00 | 35 | 1006.0 |
| 20260905185314 | 39 | 169 | 3.2 | 6.4 | 0.00 | 0.00 | 0.00 | 37 | 1006.0 |
| 20260905184814 | 40 | 224 | 3.2 | 3.2 | 0.00 | 0.00 | 0.00 | 36 | 1006.0 |
| 20260905184313 | 39 | 272 | 4.8 | 8.0 | 0.00 | 0.00 | 0.00 | 37 | 1006.0 |
| 20260905183814 | 38 | 159 | 6.4 | 9.7 | 0.00 | 0.00 | 0.00 | 37 | 1007.0 |
| 20260905183314 | 38 | 246 | 3.2 | 4.8 | 0.00 | 0.00 | 0.00 | 37 | 1007.0 |
| 20260905182814 | 38 | 105 | 4.8 | 4.8 | 0.00 | 0.00 | 0.00 | 37 | 1007.0 |
| 20260905182314 | 39 | 180 | 4.8 | 8.0 | 0.00 | 0.00 | 0.00 | 37 | 1007.0 |
| 20260905181814 | 39 | 360 | 3.2 | 3.2 | 0.00 | 0.00 | 0.00 | 36 | 1007.0 |
| 20260905181314 | 38 | 342 | 1.6 | 1.6 | 0.00 | 0.00 | 0.00 | 37 | 1007.0 |
| 20260905180814 | 37 | 167 | 8.0 | 11.3 | 0.00 | 0.00 | 0.00 | 38 | 1007.0 |
| 20260905180314 | 37 | 101 | 4.8 | 6.4 | 0.00 | 0.00 | 0.00 | 40 | 1007.0 |
| 20260905175814 | 37 | 185 | 8.0 | 9.7 | 0.00 | 0.00 | 0.00 | 38 | 1008.0 |
| 20260905175314 | 38 | 195 | 4.8 | 4.8 | 0.00 | 0.00 | 0.00 | 37 | 1008.0 |
| 20260905174814 | 38 | 318 | 3.2 | 4.8 | 0.00 | 0.00 | 0.00 | 36 | 1008.0 |
| 20260905174314 | 37 | 193 | 9.7 | 9.7 | 0.00 | 0.00 | 0.00 | 37 | 1008.0 |
| 20260905173814 | 39 | 131 | 3.2 | 3.2 | 0.00 | 0.00 | 0.00 | 34 | 1008.0 |
| 20260905173314 | 38 | 105 | 4.8 | 6.4 | 0.00 | 0.00 | 0.00 | 36 | 1008.0 |
| 20260905172814 | 38 | 154 | 6.4 | 8.0 | 0.00 | 0.00 | 0.00 | 38 | 1008.0 |
| 20260905172322 | 38 | 186 | 3.2 | 4.8 | 0.00 | 0.00 | 0.00 | 38 | 1008.0 |
| 20260905171814 | 37 | 206 | 3.2 | 4.8 | 0.00 | 0.00 | 0.00 | 41 | 1008.0 |
| 20260905171315 | 36 | 180 | 1.6 | 1.6 | 0.00 | 0.00 | 0.00 | 45 | 1008.0 |
| 20260905170814 | 35 | 203 | 3.2 | 3.2 | 0.00 | 0.00 | 0.00 | 45 | 1008.0 |
| 20260905170314 | 36 | 166 | 0.0 | 1.6 | 0.00 | 0.00 | 0.00 | 45 | 1008.0 |
| 20260905165814 | 36 | 187 | 6.4 | 9.7 | 0.00 | 0.00 | 0.00 | 44 | 1008.0 |
| 20260905165315 | 37 | 256 | 4.8 | 6.4 | 0.00 | 0.00 | 0.00 | 42 | 1008.0 |
| 20260905164814 | 37 | 163 | 4.8 | 6.4 | 0.00 | 0.00 | 0.00 | 42 | 1008.0 |
| 20260905164314 | 38 | 195 | 1.6 | 1.6 | 0.00 | 0.00 | 0.00 | 42 | 1008.0 |
| 20260905163814 | 38 | 350 | 3.2 | 3.2 | 0.00 | 0.00 | 0.00 | 40 | 1008.0 |
| 20260905163314 | 38 | 119 | 3.2 | 3.2 | 0.00 | 0.00 | 0.00 | 40 | 1008.0 |
| 20260905162814 | 38 | 125 | 1.6 | 3.2 | 0.00 | 0.00 | 0.00 | 42 | 1008.0 |
| 20260905162314 | 37 | 292 | 3.2 | 3.2 | 0.00 | 0.00 | 0.00 | 42 | 1008.0 |
| 20260905161814 | 37 | 190 | 3.2 | 6.4 | 0.00 | 0.00 | 0.00 | 41 | 1008.0 |
| 20260905161315 | 37 | 165 | 1.6 | 6.4 | 0.00 | 0.00 | 0.00 | 42 | 1008.0 |
| 20260905160814 | 36 | 155 | 1.6 | 4.8 | 0.00 | 0.00 | 0.00 | 43 | 1008.0 |
| 20260905160314 | 36 | 199 | 3.2 | 3.2 | 0.00 | 0.00 | 0.00 | 45 | 1008.0 |
| 20260905155814 | 36 | 167 | 3.2 | 4.8 | 0.00 | 0.00 | 0.00 | 43 | 1008.0 |